Regional Weather Roundup
Issued by NWS Green Bay, WI

Home | Current Version | Previous Version | Graphics & Text | Print | Product List | Glossary Off
Versions: 1 2 3 4 5 6 7 8 9 10 11 12 13 14 15 16 17 18 19 20 21 22 23 24 25 26 27 28 29 30 31 32 33 34 35 36 37 38 39 40 41 42 43 44 45 46 47 48 49 50

000
ASUS43 KGRB 311559
RWRGRB

NORTH-CENTRAL AND NORTHEAST WISCONSIN REGIONAL WEATHER ROUNDUP
NATIONAL WEATHER SERVICE GREEN BAY WI
1100 AM CDT FRI OCT 31 2014

WIZ005-009-010>012-018-019-311700-
NORTH CENTRAL WISCONSIN

CITY           SKY/WX    TMP DP  RH WIND       PRES   REMARKS
IRONWOOD       CLOUDY    30  25  80 N12G20    30.46R
MANITOWISH WTR NOT AVBL
ARBOR VITAE    NOT AVBL
EAGLE RIVER    NOT AVBL
LAND O LAKES   NOT AVBL
RHINELANDER    CLOUDY    29  21  72 NE15G25   30.38R
PHILLIPS       NOT AVBL
ANTIGO         NOT AVBL
TOMAHAWK       NOT AVBL
MERRILL        NOT AVBL
$$

WIZ013-073-311700-
NORTHEAST WISCONSIN

CITY           SKY/WX    TMP DP  RH WIND       PRES   REMARKS
IRON MOUNTAIN  CLOUDY    31  23  72 N21G28    30.34R
MARINETTE      PTSUNNY   36  21  55 NE21G37   30.30R
$$

WIZ017-030-035>037-045-311700-
CENTRAL WISCONSIN

CITY           SKY/WX    TMP DP  RH WIND       PRES   REMARKS
MEDFORD        NOT AVBL
WAUSAU         MOSUNNY   32  17  54 NE15G29   30.37R
MOSINEE        CLOUDY    30  21  69 N23       30.38R
MARSHFIELD     CLOUDY    33  21  61 N17G26    30.39R
WISC RAPIDS    MOSUNNY   35  21  56 N25G35    30.39R
STEVENS POINT  NOT AVBL
WAUPACA        NOT AVBL
SHAWANO        NOT AVBL
CLINTONVILLE   NOT AVBL
$$

WIZ038-039-048-051-311700-
FOX VALLEY

CITY           SKY/WX    TMP DP  RH WIND       PRES   REMARKS
NWS GREEN BAY  PTSUNNY   36  22  56 N29G40    30.30R
APPLETON       NOT AVBL
OSHKOSH        CLOUDY    36  21  54 N30G41    30.29R
FOND DU LAC    CLOUDY    35  20  54 N30G43    30.30R
$$

WIZ022-050-052-311700-
EAST CENTRAL WISCONSIN

CITY           SKY/WX    TMP DP  RH WIND       PRES   REMARKS
STURGEON BAY   CLOUDY    34  25  69 N30G40    30.27R
MANITOWOC      NOT AVBL
SHEBOYGAN      CLOUDY    36  24  62 N20G36    30.22R
$$

LMZ563-521-522-541>543-311700-
LAKESHORE

STATION/POSITION TIME  TEMP    WIND        PRES    VSBY  WAVE
                       AIR SEA DIR/SP/G                  HT/PER
                 (UTC) (F)     (DEG/KT/KT) (MB)    (MI)  (FT/S)
SHEBOYGAN LKSHOR 1500   36 48  360/ 36/ 44 1023.0R
KEWAUNEE LKSHORE 1500   35     360/ 13/ 19 1023.0R
TWO RIVERS CG    1500   36                 1022.6      6   6
NORTHPORT PIER   1500   36     360/ 31/ 38 1024.4S
N MID LAKE BUOY  1500   36 49   10/ 31/ 39 1022.9R         9/ 7
STURGEON BAY CG  1500   35 48   40/ 13     1026.0   1 1/4  7
CHAMBERS ISLAND  1500   36     340/ 33/ 39 1025.1R
MENOMINEE LKSHOR 1500   36     360/ 24/ 30 1026.2R
$$



USA.gov is the U.S. government's official web portal to all federal, state and local government web resources and services.